Regional Weather Roundup
Issued by NWS

Home | Current Version | Previous Version | Graphics & Text | Print | Product List | Glossary On
Versions: 1 2 3 4 5 6 7 8 9 10 11 12 13 14 15 16 17 18 19 20 21 22 23 24 25 26 27 28 29 30 31 32 33 34 35 36 37 38 39 40 41 42 43 44 45 46 47 48 49 50
000
ASUS43 KIND 200000
RWRIN

WEATHER ROUNDUP FOR INDIANA
NATIONAL WEATHER SERVICE INDIANAPOLIS IN
800 PM EDT SAT AUG 19 2017

NOTE: "FAIR" INDICATES FEW OR NO CLOUDS BELOW 12,000 FEET WITH NO
SIGNIFICANT WEATHER AND/OR OBSTRUCTIONS TO VISIBILITY.

* - STATION DOES NOT REPORT WEATHER SUCH AS PRECIPITATION OR FOG.

+ - STATION NOT QUALITY CONTROLLED BY THE NATIONAL WEATHER SERVICE.
    USE DATA WITH CAUTION...ESPECIALLY DEWPOINT AND RELATIVE
    HUMIDITY OBSERVATIONS.

INZ001>003-010>013-019-020-200100-
NORTHWEST INDIANA

CITY           SKY/WX    TMP DP  RH WIND       PRES   REMARKS
GARY /AIRPORT/ CLEAR     77  50  38 VRB7      29.96S
MICHIGAN CITY+ CLEAR     72  59  64 CALM      29.98S
MONTICELLO +   CLEAR     80  58  46 CALM      29.95S
6HR MIN TEMP:  79; 6HR MAX TEMP:  82;


$$

LMZ046-743>745-200100-
SOUTHERN LAKE MICHIGAN

STATION/POSITION TIME  TEMP    WIND        PRES    WAVE
                       AIR SEA DIR/SP/G            HT
                 (UTC) (F)     (DEG/KT/KT) (MB)    (FT)
BURNS HARBOR     2340   76      60/  8/  9 1014.9S
MICHIGAN CITY    2330   73      40/  7/  7   N/A
5NW MICH CITY    2350   74 76   80/  6/  6   N/A     1

$$

INZ004-005-014>016-021>024-200100-
NORTH CENTRAL INDIANA

CITY           SKY/WX    TMP DP  RH WIND       PRES   REMARKS
GOSHEN         CLEAR     77  59  53 W6        29.96S
6HR MIN TEMP:  77; 6HR MAX TEMP:  81;

PERU/GRISSOM   CLEAR     78  59  52 N3        29.96R
6HR MIN TEMP:  78; 6HR MAX TEMP:  82;

SOUTH BEND     CLEAR     75  58  55 NW8       29.98R
6HR MIN TEMP:  75; 6HR MAX TEMP:  82;


$$

INZ006>009-017-018-025>027-200100-
NORTHEAST INDIANA

CITY           SKY/WX    TMP DP  RH WIND       PRES   REMARKS
FORT WAYNE     CLEAR     76  62  62 NW5       29.97R
6HR MIN TEMP:  76; 6HR MAX TEMP:  82;


$$

INZ028-029-035-036-043>045-051>053-200100-
WEST CENTRAL INDIANA

CITY           SKY/WX    TMP DP  RH WIND       PRES   REMARKS
LAFAYETTE      CLEAR     79  61  53 N3        29.94F
6HR MIN TEMP:  79; 6HR MAX TEMP:  84;

TERRE HAUTE    PTCLDY    82  70  66 CALM      29.93S
6HR MIN TEMP:  82; 6HR MAX TEMP:  88;


$$

INZ030>032-037>040-046>048-054>057-064-065-200100-
CENTRAL INDIANA

CITY           SKY/WX    TMP DP  RH WIND       PRES   REMARKS
COLUMBUS       MOCLDY    82  63  51 CALM      29.94R
GREENWOOD *+   PTCLDY    82  64  53 NE7       29.95S
INDIANAPOLIS   PTCLDY    83  61  47 N7        29.94R
6HR MIN TEMP:  83; 6HR MAX TEMP:  89;

-EAGLE CREEK   CLEAR     82  64  54 N7        29.94R
6HR MIN TEMP:  82; 6HR MAX TEMP:  87;

KOKOMO +       CLEAR     78  62  57 NW5       29.98R
6HR MIN TEMP:  78; 6HR MAX TEMP:  83;

MT COMFORT *+  CLEAR     79  68  69 NE5       29.96S
SHELBYVILLE    CLEAR     80  68  66 N5        29.94R
6HR MIN TEMP:  80; 6HR MAX TEMP:  87;


$$

INZ033-034-041-042-049-050-058-059-200100-
EAST CENTRAL INDIANA

CITY           SKY/WX    TMP DP  RH WIND       PRES   REMARKS
MUNCIE         CLEAR     78  64  61 N5        29.97R
6HR MIN TEMP:  78; 6HR MAX TEMP:  84;

RICHMOND +     CLEAR     77  66  69 N5        29.98R

$$

INZ060-061-067>069-081>083-085>088-200100-
SOUTHWEST INDIANA

CITY           SKY/WX    TMP DP  RH WIND       PRES   REMARKS
EVANSVILLE     CLEAR     85  68  56 W7        29.93S
6HR MIN TEMP:  85; 6HR MAX TEMP:  89;

HUNTINGBURG +  PTCLDY    83  70  64 S5        29.94S
6HR MIN TEMP:  83; 6HR MAX TEMP:  87;


$$

INZ062-063-066-070>080-084-089>092-200100-
SOUTH CENTRAL AND SOUTHEAST INDIANA

CITY           SKY/WX    TMP DP  RH WIND       PRES   REMARKS
BLOOMINGTON    CLOUDY    83  66  56 W6        29.95R
6HR MIN TEMP:  83; 6HR MAX TEMP:  89;

MADISON *+     PTCLDY    77  64  65 SW3       29.98R
SEYMOUR +      PTCLDY    81  66  61 CALM      29.94

$$





USA.gov is the U.S. government's official web portal to all federal, state and local government web resources and services.